• en France
  • Liste des pays
  • À 7 jours
  • Température de l'eau
  • Carte satellitaire
  • Carte météo
  • Widgets météo
  • user-avatar
    Se connecter

    Météo par heure à Szombathely

    Ce jour, 18 Novembre, Samedi

    Heure Température Précipitation Vent Pression Humidité
    00:00 +3°C° 0 mm 2 m/s 748 mmHg 82%
    01:00 +2°C° 0 mm 2 m/s 747 mmHg 86%
    02:00 +3°C° 0 mm 2 m/s 747 mmHg 85%
    03:00 +3°C° 0 mm 2 m/s 747 mmHg 85%
    04:00 +2°C° 0 mm 3 m/s 747 mmHg 84%
    05:00 +2°C° 0 mm 3 m/s 746 mmHg 84%
    06:00 +2°C° 0 mm 3 m/s 746 mmHg 84%
    07:00 +2°C° 0 mm 3 m/s 746 mmHg 87%
    08:00 +3°C° 0 mm 3 m/s 746 mmHg 83%
    09:00 +4°C° 0 mm 3 m/s 746 mmHg 78%
    10:00 +5°C° 0 mm 3 m/s 746 mmHg 74%
    11:00 +7°C° 0 mm 3 m/s 746 mmHg 69%
    12:00 +8°C° 0 mm 3 m/s 745 mmHg 65%
    13:00 +8°C° 0 mm 3 m/s 745 mmHg 61%
    14:00 +8°C° 0 mm 2 m/s 745 mmHg 65%
    15:00 +8°C° 0 mm 1 m/s 744 mmHg 69%
    16:00 +7°C° 0 mm 1 m/s 744 mmHg 73%
    17:00 +6°C° 0 mm 1 m/s 744 mmHg 76%
    18:00 +6°C° 0 mm 1 m/s 744 mmHg 79%
    19:00 +5°C° 0 mm 1 m/s 744 mmHg 81%
    20:00 +5°C° 0 mm 1 m/s 744 mmHg 83%
    21:00 +4°C° 0 mm 1 m/s 744 mmHg 84%
    22:00 +4°C° 0 mm 1 m/s 744 mmHg 86%
    23:00 +4°C° 0 mm 1 m/s 744 mmHg 87%

    Demain, 19 Novembre, Dimanche

    Heure Température Précipitation Vent Pression Humidité
    00:00 +3°C° 0 mm 1 m/s 743 mmHg 87%
    01:00 +3°C° 0 mm 1 m/s 743 mmHg 88%
    02:00 +3°C° 0 mm 1 m/s 743 mmHg 87%
    03:00 +3°C° 0 mm 1 m/s 742 mmHg 87%
    04:00 +3°C° 0 mm 1 m/s 742 mmHg 87%
    05:00 +3°C° 0 mm 1 m/s 742 mmHg 86%
    06:00 +3°C° 0 mm 1 m/s 741 mmHg 85%
    07:00 +3°C° 0 mm 1 m/s 741 mmHg 85%
    08:00 +4°C° 0,1 mm 1 m/s 741 mmHg 82%
    09:00 +5°C° 0,1 mm 1 m/s 741 mmHg 79%
    10:00 +5°C° 0,1 mm 2 m/s 741 mmHg 76%
    11:00 +6°C° 0,2 mm 1 m/s 741 mmHg 73%
    12:00 +7°C° 0,2 mm 1 m/s 741 mmHg 71%
    13:00 +7°C° 0,2 mm 1 m/s 740 mmHg 69%
    14:00 +7°C° 0,2 mm 1 m/s 741 mmHg 72%
    15:00 +6°C° 0,2 mm 1 m/s 741 mmHg 75%
    16:00 +6°C° 0,2 mm 1 m/s 741 mmHg 77%
    17:00 +5°C° 0 mm 1 m/s 741 mmHg 78%
    18:00 +3°C° 0 mm 2 m/s 742 mmHg 78%
    19:00 +3°C° 0 mm 2 m/s 742 mmHg 78%
    20:00 +2°C° 0 mm 2 m/s 742 mmHg 78%
    21:00 +2°C° 0 mm 2 m/s 743 mmHg 78%
    22:00 +2°C° 0 mm 2 m/s 743 mmHg 78%
    23:00 +2°C° 0 mm 2 m/s 743 mmHg 78%

    Après-demain, 20 Novembre, Lundi

    Heure Température Précipitation Vent Pression Humidité
    00:00 +2°C° 0 mm 2 m/s 743 mmHg 77%
    01:00 +1°C° 0 mm 3 m/s 743 mmHg 77%
    02:00 +1°C° 0 mm 3 m/s 743 mmHg 76%
    03:00 +1°C° 0 mm 3 m/s 743 mmHg 76%
    04:00 +1°C° 0 mm 3 m/s 743 mmHg 75%
    05:00 +1°C° 0 mm 3 m/s 743 mmHg 75%
    06:00 +1°C° 0 mm 3 m/s 744 mmHg 75%
    07:00 +1°C° 0 mm 3 m/s 744 mmHg 75%
    08:00 +1°C° 0 mm 4 m/s 745 mmHg 69%
    09:00 +3°C° 0 mm 5 m/s 745 mmHg 63%
    10:00 +4°C° 0 mm 6 m/s 746 mmHg 57%
    11:00 +5°C° 0 mm 6 m/s 745 mmHg 55%
    12:00 +5°C° 0 mm 6 m/s 745 mmHg 52%
    13:00 +7°C° 0 mm 6 m/s 745 mmHg 50%
    14:00 +6°C° 0 mm 5 m/s 745 mmHg 54%
    15:00 +5°C° 0 mm 3 m/s 745 mmHg 58%
    16:00 +5°C° 0 mm 2 m/s 745 mmHg 63%
    17:00 +5°C° 0 mm 2 m/s 745 mmHg 64%
    18:00 +5°C° 0 mm 2 m/s 745 mmHg 66%
    19:00 +5°C° 0 mm 2 m/s 746 mmHg 68%
    20:00 +4°C° 0,2 mm 2 m/s 745 mmHg 70%
    21:00 +4°C° 0,2 mm 2 m/s 745 mmHg 72%
    22:00 +4°C° 0,2 mm 2 m/s 745 mmHg 74%
    23:00 +4°C° 0,2 mm 2 m/s 744 mmHg 75%

    21 Novembre, Mardi

    Heure Température Précipitation Vent Pression Humidité
    00:00 +3°C° 0,2 mm 3 m/s 744 mmHg 75%
    01:00 +3°C° 0,2 mm 3 m/s 743 mmHg 76%
    02:00 +3°C° 0,1 mm 3 m/s 743 mmHg 76%
    03:00 +3°C° 0,1 mm 3 m/s 742 mmHg 77%
    04:00 +2°C° 0,1 mm 3 m/s 742 mmHg 77%
    05:00 +2°C° 0 mm 3 m/s 742 mmHg 77%
    06:00 +2°C° 0 mm 3 m/s 741 mmHg 77%
    07:00 +2°C° 0 mm 3 m/s 741 mmHg 76%
    08:00 +4°C° 0,1 mm 3 m/s 742 mmHg 73%
    09:00 +5°C° 0,1 mm 3 m/s 742 mmHg 70%
    10:00 +7°C° 0,1 mm 3 m/s 742 mmHg 67%
    11:00 +8°C° 0 mm 3 m/s 742 mmHg 65%
    12:00 +9°C° 0 mm 3 m/s 742 mmHg 64%
    13:00 +10°C° 0 mm 3 m/s 742 mmHg 62%
    14:00 +10°C° 0 mm 3 m/s 742 mmHg 65%
    15:00 +9°C° 0 mm 3 m/s 742 mmHg 68%
    16:00 +9°C° 0 mm 2 m/s 742 mmHg 71%
    17:00 +8°C° 0 mm 2 m/s 743 mmHg 73%
    18:00 +8°C° 0 mm 2 m/s 743 mmHg 75%
    19:00 +7°C° 0 mm 2 m/s 743 mmHg 77%
    20:00 +7°C° 0,2 mm 2 m/s 743 mmHg 79%
    21:00 +7°C° 0,2 mm 2 m/s 743 mmHg 80%
    22:00 +8°C° 0,2 mm 2 m/s 744 mmHg 82%
    23:00 +7°C° 0,2 mm 2 m/s 744 mmHg 83%

    22 Novembre, Mercredi

    Heure Température Précipitation Vent Pression Humidité
    00:00 +7°C° 0,2 mm 2 m/s 744 mmHg 85%
    01:00 +7°C° 0,2 mm 2 m/s 744 mmHg 86%
    02:00 +7°C° 0 mm 2 m/s 744 mmHg 86%
    03:00 +7°C° 0 mm 2 m/s 744 mmHg 85%
    04:00 +7°C° 0 mm 2 m/s 744 mmHg 85%
    05:00 +6°C° 0 mm 2 m/s 744 mmHg 85%
    06:00 +7°C° 0 mm 1 m/s 744 mmHg 85%
    07:00 +7°C° 0 mm 1 m/s 744 mmHg 85%
    08:00 +8°C° 0 mm 1 m/s 745 mmHg 80%
    09:00 +9°C° 0 mm 1 m/s 745 mmHg 75%
    10:00 +11°C° 0 mm 1 m/s 745 mmHg 70%
    11:00 +12°C° 0 mm 1 m/s 745 mmHg 68%
    12:00 +12°C° 0 mm 2 m/s 745 mmHg 66%
    13:00 +13°C° 0 mm 2 m/s 745 mmHg 63%
    14:00 +12°C° 0 mm 2 m/s 745 mmHg 69%
    15:00 +10°C° 0 mm 2 m/s 744 mmHg 74%
    16:00 +9°C° 0 mm 2 m/s 744 mmHg 79%
    17:00 +9°C° 0 mm 2 m/s 745 mmHg 82%
    18:00 +8°C° 0 mm 2 m/s 745 mmHg 84%
    19:00 +7°C° 0 mm 2 m/s 745 mmHg 87%
    20:00 +7°C° 0 mm 2 m/s 745 mmHg 87%
    21:00 +7°C° 0 mm 2 m/s 745 mmHg 87%
    22:00 +8°C° 0 mm 1 m/s 745 mmHg 87%
    23:00 +8°C° 0 mm 1 m/s 745 mmHg 87%

    23 Novembre, Jeudi

    Heure Température Précipitation Vent Pression Humidité
    00:00 +7°C° 0 mm 1 m/s 745 mmHg 87%
    01:00 +6°C° 0 mm 2 m/s 745 mmHg 87%
    02:00 +6°C° 0 mm 2 m/s 745 mmHg 87%
    03:00 +5°C° 0 mm 2 m/s 745 mmHg 88%
    04:00 +5°C° 0 mm 2 m/s 745 mmHg 88%
    05:00 +5°C° 0 mm 2 m/s 745 mmHg 89%
    06:00 +5°C° 0 mm 2 m/s 745 mmHg 89%
    07:00 +5°C° 0 mm 2 m/s 745 mmHg 90%
    08:00 +6°C° 0 mm 2 m/s 745 mmHg 85%
    09:00 +7°C° 0 mm 3 m/s 745 mmHg 81%
    10:00 +9°C° 0 mm 3 m/s 745 mmHg 77%
    11:00 +10°C° 0 mm 3 m/s 745 mmHg 74%
    12:00 +11°C° 0 mm 3 m/s 745 mmHg 70%
    13:00 +12°C° 0 mm 3 m/s 745 mmHg 66%
    14:00 +12°C° 0 mm 2 m/s 745 mmHg 71%
    15:00 +10°C° 0 mm 2 m/s 745 mmHg 76%
    16:00 +10°C° 0 mm 1 m/s 746 mmHg 80%
    17:00 +10°C° 0 mm 1 m/s 746 mmHg 83%
    18:00 +9°C° 0 mm 1 m/s 746 mmHg 86%
    19:00 +7°C° 0 mm 2 m/s 747 mmHg 88%
    20:00 +8°C° 0 mm 1 m/s 747 mmHg 89%
    21:00 +7°C° 0 mm 1 m/s 747 mmHg 90%
    22:00 +7°C° 0 mm 1 m/s 748 mmHg 90%
    23:00 +7°C° 0 mm 1 m/s 748 mmHg 90%
    Voir plus